Location: Baia Mare
(47.6567°N, 23.5850°E)
Time: 15:46:17
(UTC+03:00)

ISS - Pass Details

Date: 21 May 2018
Orbit: 402 x 407 km, 51.6° (Epoch: 25 May)

Event Time Altitude Azimuth Distance (km) Brightness Sun altitude
Rises 04:58:49 0° 289° (WNW) 2,318 -0.3 -6.6°
Reaches altitude 10° 05:01:06 10° 276° (W) 1,456 -1.4 -6.4°
Maximum altitude 05:03:51 25° 219° (SW) 846 -2.8 -6.0°
Drops below altitude 10° 05:06:36 10° 161° (SSE) 1,449 -1.2 -5.6°
Sets 05:08:52 0° 147° (SSE) 2,305 -0.1 -5.3°
